Location: Br�ttisellen
(47.4227°N, 8.6287°E)
Time: 13:22:18
(UTC+00:00)

Cosmos 407 Rocket - Pass Details

Date: 09 April 2020
Orbit: 743 x 787 km, 74.0° (Epoch: 03 June)

Event Time Altitude Azimuth Distance (km) Brightness Sun altitude
Rises 19:02:49 0° 197° (SSW) 3,186 6.6 -9.8°
Reaches altitude 10° 19:05:10 10° 197° (SSW) 2,261 5.9 -10.2°
Maximum altitude 19:10:17 81° 110° (ESE) 760 3.4 -11.0°
Drops below altitude 10° 19:15:25 10° 24° (NNE) 2,267 6.0 -11.7°
Sets 19:17:46 0° 24° (NNE) 3,195 6.8 -12.1°
